Snowfall_Accumulation
0.0 0.0 0.0 0.0 0.0 0.2 0.5 0.9 1.9 1.6 0.0 0.0 0.0 0.0 0.0 0.0 0.0 0.0 0.0 0.0 0.0 0.0 0.0 0.0 0.0 0.0 0.0 0.0 0.0 0.0 0.0 0.0 0.0 0.0 0.0 0.0 0.0 0.0
0.0 0.0 0.0 0.0 0.0 0.2 0.3 0.0 0.4 1.2 1.4 0.0 0.0 0.0 0.0 0.0 0.0 0.0 0.0 0.0 0.0 0.0 0.0 0.0 0.0 0.0 0.0 0.0 0.0 0.0 0.0 0.0 0.0 0.0 0.0 0.0 0.0 0.0
0.0 0.0 0.0 0.0 0.0 0.1 0.1 0.2 0.1 0.5 1.6 0.0 0.0 0.0 0.0 0.0 0.0 0.0 0.0 0.0 0.0 0.0 0.0 0.0 0.0 0.0 0.0 0.0 0.0 0.0 0.0 0.0 0.0 0.0 0.0 0.0 0.0 0.0
0.0 0.0 0.0 0.0 0.1 0.1 0.2 0.2 0.2 0.2 0.9 0.6 0.0 0.0 0.0 0.0 0.0 0.0 0.0 0.0 0.0 0.0 0.0 0.0 0.0 0.0 0.0 0.0 0.0 0.0 0.0 0.0 0.0 0.0 0.0 0.0 0.0 0.0
0.0 0.0 0.0 0.0 0.1 0.1 0.2 0.2 0.1 0.1 0.1 0.5 0.2 0.0 0.0 0.0 0.0 0.0 0.0 0.0 0.0 0.0 0.0 0.0 0.0 0.0 0.0 0.0 0.0 0.0 0.0 0.0 0.0 0.0 0.0 0.0 0.0 0.0
0.0 0.0 0.0 0.1 0.2 0.2 0.2 0.4 0.2 0.3 0.2 0.2 0.0 0.0 0.0 0.0 0.0 0.0 0.3 0.0 1.5 0.0 0.0 0.0 0.0 0.0 0.0 0.0 0.0 0.0 0.0 0.0 0.0 0.0 0.0 0.0 0.0 0.0
0.1 0.1 0.1 0.1 0.3 0.6 0.7 0.7 0.6 0.7 0.4 0.7 0.5 0.1 0.0 0.0 0.0 0.0 1.2 0.8 4.0 0.0 0.0 1.5 0.0 0.0 0.0 0.0 0.0 0.0 0.0 0.0 0.0 0.0 0.0 0.0 0.0 0.0
0.2 0.1 0.1 0.1 0.1 0.3 0.5 0.7 1.0 1.3 1.2 0.8 0.6 0.3 0.0 0.0 0.2 0.1 1.9 4.3 7.3 0.0 6.5 3.0 0.0 0.0 0.0 0.0 0.0 0.0 0.0 0.0 0.0 0.0 0.0 0.0 0.0 0.0
0.2 0.1 0.0 0.0 0.0 0.2 0.1 0.2 0.2 0.2 0.5 0.9 0.9 0.0 0.1 0.0 0.2 0.0 1.4 3.4 6.2 5.2 6.5 3.5 0.0 0.0 0.0 0.0 0.0 0.0 0.0 0.0 0.0 0.0 0.0 0.0 0.0 0.0
0.0 0.0 0.0 0.0 0.0 0.0 0.1 0.1 0.0 0.0 0.0 0.0 0.0 0.0 0.1 0.1 0.1 0.0 0.4 1.6 1.5 2.7 6.9 7.3 3.5 0.0 0.0 0.0 0.0 0.0 0.0 0.0 0.0 0.0 0.0 0.0 0.0 0.0
0.0 0.0 0.0 0.0 0.0 0.2 0.5 0.4 0.1 0.0 0.0 0.0 0.0 0.0 0.0 0.0 0.0 0.0 0.7 3.1 4.0 4.4 7.3 7.0 3.4 3.4 0.0 0.0 0.0 0.0 0.0 0.0 0.0 0.0 0.0 0.0 0.0 0.0
0.0 0.0 0.0 0.1 0.2 0.5 0.7 0.5 0.3 0.0 0.0 0.0 0.0 0.0 0.0 0.0 0.0 0.0 0.0 3.2 4.3 3.7 2.9 5.3 4.9 4.0 2.4 0.0 0.0 0.0 0.0 0.0 0.0 0.0 0.0 0.0 0.0 0.0
0.2 0.1 0.0 0.1 0.2 0.4 0.6 0.8 0.6 0.0 0.1 0.2 0.0 0.0 0.0 0.0 0.0 0.0 0.0 0.9 2.5 3.1 2.2 2.3 3.5 3.4 4.1 3.9 0.0 0.0 0.0 0.0 0.0 0.0 0.0 0.0 0.0 0.0
0.3 0.1 0.0 0.2 0.1 0.1 0.2 0.1 0.4 0.6 0.4 0.1 0.0 0.0 0.0 0.0 0.0 0.0 0.0 0.0 0.0 1.8 1.5 1.2 2.8 3.0 4.6 5.5 0.0 0.0 0.0 0.0 0.0 0.0 0.0 0.0 0.0 0.0
0.1 0.1 0.3 0.3 0.3 0.3 0.1 0.4 0.3 0.2 0.6 0.4 0.2 0.0 0.0 0.0 0.0 0.0 0.0 0.0 0.0 0.8 1.0 0.8 1.5 2.5 3.8 6.0 0.0 0.0 0.0 0.0 0.0 0.0 0.0 0.0 0.0 0.0
0.2 0.3 0.1 0.2 0.1 0.1 0.0 0.1 0.1 0.2 0.3 0.1 0.2 0.0 0.0 0.0 0.0 0.0 0.0 0.0 1.3 2.2 0.5 1.0 1.4 1.8 2.4 0.0 6.3 0.0 0.0 0.0 0.0 0.0 0.0 0.0 0.0 0.0
0.6 0.5 0.1 0.0 0.1 0.0 0.0 0.0 0.0 0.1 0.1 0.2 0.1 0.0 0.0 0.0 0.0 0.0 0.0 0.0 0.9 2.2 2.8 4.0 2.6 1.4 2.7 3.6 0.0 6.2 0.0 0.0 0.8 0.2 0.1 0.0 0.0 0.0
0.4 0.3 0.3 0.3 0.3 0.2 0.2 0.1 0.0 0.0 0.0 0.1 0.1 0.0 0.0 0.0 0.0 0.0 0.0 0.0 0.4 1.9 2.9 3.8 2.2 2.2 4.0 6.3 6.4 5.5 1.0 0.0 0.3 0.1 0.0 0.0 2.4 2.9
0.2 0.1 0.2 0.2 0.4 0.2 0.4 0.0 0.1 0.0 0.0 0.0 0.1 0.2 0.0 0.0 0.1 0.0 0.0 0.0 0.1 1.7 3.1 2.6 2.1 0.4 1.6 3.4 7.8 7.2 3.9 0.4 0.6 1.2 0.7 0.4 0.6 1.2
0.3 0.4 0.4 0.1 0.2 0.3 0.2 0.4 0.1 0.0 0.0 0.1 0.2 0.1 0.0 0.0 0.1 0.2 0.1 0.0 0.0 1.2 3.1 2.9 2.9 2.0 0.5 0.8 2.6 6.4 6.0 3.6 0.7 2.1 3.3 3.2 2.9 3.3
0.3 0.3 0.4 0.2 0.3 0.2 0.1 0.2 0.4 0.0 0.2 0.2 0.4 0.1 0.0 0.1 0.1 0.2 0.3 0.1 0.2 1.3 2.9 2.5 3.0 3.0 2.3 0.9 1.1 3.9 6.9 6.8 3.1 0.6 0.9 1.1 1.7 1.9
0.5 0.6 0.4 0.4 0.3 0.3 0.1 0.0 0.2 0.5 0.6 0.2 0.3 0.2 0.1 0.1 0.2 0.1 0.2 0.1 0.0 1.1 3.2 2.7 3.4 3.7 4.8 3.4 1.6 1.5 2.9 4.8 4.6 1.7 0.2 0.0 0.3 0.5
0.9 0.8 0.6 0.6 0.5 0.4 0.4 0.1 0.0 0.0 0.6 0.2 0.1 0.0 0.1 0.3 0.0 0.2 0.3 0.3 0.1 1.0 2.8 3.3 3.8 3.6 4.0 4.5 2.5 1.6 1.1 1.4 1.7 1.2 1.0 0.6 0.2 0.2